Regional Weather Roundup
Issued by NWS

Home | Current Version | Previous Version | Graphics & Text | Print | Product List | Glossary On
Versions: 1 2 3 4 5 6 7 8 9 10 11 12 13 14 15 16 17 18 19 20 21 22 23 24 25 26 27 28 29 30 31 32 33 34 35 36 37 38 39 40 41 42 43 44 45 46 47 48 49 50
321
ASUS45 KBOU 140007
RWRCO

WEATHER ROUNDUP FOR COLORADO
NATIONAL WEATHER SERVICE DENVER/BOULDER CO
500 PM MST SAT FEB 13 2016

NOTE: "FAIR" INDICATES FEW OR NO CLOUDS BELOW 12000 FEET WITH NO
SIGNIFICANT WEATHER AND/OR OBSTRUCTIONS TO VISIBILITY.

COZ001>005-013-030-031-140100-
...NORTHWEST COLORADO...

CITY           SKY/WX    TMP DP  RH WIND       PRES   REMARKS
CRAIG          FAIR      27  20  75 W3        30.18R
HAYDEN         FAIR      28  19  69 S6        30.17R WCI  22
MEEKER         FAIR      39  25  57 NE6       30.15F
MOUNT WERNER   NOT AVBL
STEAMBOAT SPGS FAIR      34  21  57 CALM      30.16S
WALDEN         FAIR      34  19  55 SW25G35   30.07F WCI  21
$$

COZ006>008-011-140100-
...WEST CENTRAL VALLEYS...

CITY           SKY/WX    TMP DP  RH WIND       PRES   REMARKS
GRAND JUNCTION FAIR      40  32  73 NW3       30.19S
MONTROSE       FAIR      47  27  45 CALM      30.20S
EAGLE          CLOUDY    46  19  34 SW9       30.17R
RIFLE          FAIR      40  26  57 CALM      30.18F
DELTA          FAIR      50  35  55 E3        30.18R
NUCLA          NOT AVBL
$$

COZ017>023-064>068-140100-
...SOUTHWEST COLORADO...

CITY           SKY/WX    TMP DP  RH WIND       PRES   REMARKS
DURANGO        FAIR      48  17  29 W21       30.13F
CORTEZ         FAIR      51  26  37 N5        30.17F
PAGOSA SPRINGS FAIR      51  17  26 SW13G20   30.16S
TELLURIDE      NOT AVBL
WOLF CREEK PAS FAIR      32  14  47 S16G26    30.34R WCI  21
$$

COZ009-010-012-014-032>034-037-058>063-140100-
...CENTRAL COLORADO...

CITY           SKY/WX    TMP DP  RH WIND       PRES   REMARKS
ASPEN          FAIR      39  24  55 SW5       30.18F
BUENA VISTA    FAIR      48   5  17 W18G26    30.14R
COPPER MTN     CLOUDY    32   7  34 W21G31    30.26S WCI  20
BERTHOUD PASS  MOCLDY    21  10  63 W30G44    30.21F WCI   3
COTTONWOOD PAS FAIR      43 -13   9 W20G35    30.19R
GUNNISON       FAIR      21  12  68 CALM      30.28R
KREMMLING      FAIR      25  18  74 CALM      30.16F
LEADVILLE      MOCLDY    33   8  35 W14G22    30.21S WCI  23
MONARCH PASS   FAIR      30   5  34 W32G40    30.38S WCI  15
SALIDA         NOT AVBL
SUNLIGHT       FAIR      32  19  59 CALM      30.30S
WILKERSON PASS FAIR      32   1  27 W15G31    30.24R WCI  22
$$

COZ069>075-140100-
...SAN LUIS VALLEY/SANGRE DE CRISTO MOUNTAINS...

CITY           SKY/WX    TMP DP  RH WIND       PRES   REMARKS
ALAMOSA        FAIR      56  11  16 N9        30.10R
LA VETA PASS   FAIR      41  18  38 SW8G20    30.17R
SAGUACHE       FAIR      48  12  23 NW25G35   30.14R
$$

COZ035-036-038>040-140100-
...NORTHERN COLORADO FRONT RANGE...

CITY           SKY/WX    TMP DP  RH WIND       PRES   REMARKS
DENVER INTL AP MOCLDY    59  17  19 W16       29.96S
DMNS CITY PARK   N/A     60  11  14 W16G26    29.97S
AURORA         MOCLDY    59  13  16 W18G30    29.98R
FRONT RANGE AP MOCLDY    57  21  24 W15G24    29.97R
ERIE MUNI ARPT FAIR      58  15  18 W21G28    29.97R
BOULDER MUN AP FAIR      57  14  18 W23G40    29.94F
CENTENNIAL     MOCLDY    59   9  13 W21G30    29.98R
BROOMFIELD     PTCLDY    59  14  17 W10G25    29.99S
FORT COLLINS   FAIR      54  21  28 SW13G21   29.90F
LONGMONT       FAIR      59  14  17 W12G21    29.96F
$$

COZ041-046-047-076>085-087-088-140100-
...PIKES PEAK/PALMER DIVIDE AND SOUTHERN FOOTHILLS...

CITY           SKY/WX    TMP DP  RH WIND       PRES   REMARKS
COLO. SPRINGS  FAIR      62   1   8 W21G32    29.99R
A. F. ACADEMY  FAIR      55  20  25 VRB5      30.01R
SCHRIEVER AFB  FAIR      55  22  27 NW13G24   30.00R
ELLICOTT       FAIR     N/A N/A N/A N9        29.99R
FALCON         FAIR      52  21  28 N8        30.04R
FORT CARSON    FAIR      62   8  12 NW7       29.97R
LIMON          FAIR      45  34  65 NW5       29.96R
MONUMENT HILL  FAIR      45  21  39 W3        30.05R
TRINIDAD       FAIR      66   6   9 NW16      29.95S
$$

COZ042>045-048>051-090-091-140100-
...NORTHEAST COLORADO...

CITY           SKY/WX    TMP DP  RH WIND       PRES   REMARKS
GREELEY ARPT   FAIR      43  36  75 S9        29.93S
AKRON          FAIR      45  36  70 SW10      29.90F
BURLINGTON     FAIR      35  30  82 S10       29.95F WCI  27
WRAY           FAIR      38  32  79 SE6G18    29.92F
STERLING       FAIR      41  36  81 SW13      29.87F
HOLYOKE        FAIR      36  32  87 S9        29.90F
FORT MORGAN    FAIR      38  33  81 W9        29.91F
$$

COZ086-089-092>099-140100-
...SOUTHEAST COLORADO...

CITY           SKY/WX    TMP DP  RH WIND       PRES   REMARKS
PUEBLO         FAIR      70  -4   5 W24G30    29.90R
LA JUNTA       FAIR      48  31  51 E9        29.91S
LAMAR          FAIR      48  31  51 NE8       29.91S
SPRINGFIELD      N/A     62  31  31 NE13      29.89R
$$




USA.gov is the U.S. government's official web portal to all federal, state and local government web resources and services.